Date String (YYYY-MM-DD hh:mm:ss) UTC,Instrument flags,Ambient pressure (hPa),Sample flow (lpm),Bypass flow (lpm),Sample temperature (°C),Ambient temperature (°C),ASC tube jacket temperature (°C),LED temperature (°C),Box temperature (°C),Sample RH (%),Span deviation,Mass concentration (μg/m³),Mass concentration (μg/m³),Mass concentration (μg/m³)
DateTimeUTC,F1_M11,P_M11,Q1_M11,Q2_M11,T1_M11,T2_M11,T3_M11,T4_M11,T5_M11,U1_M11,ZSPAN_M11,X0_M11,X2_M11,X1_M11
2021-09-19 01:00:00,,0825.6,5.01,0.00,29.1,27.1,00.0,38.1,30.8,14.6,0000.7,0010.76,0004.98,0004.34
2021-09-19 01:01:00,,0825.5,5.01,0.00,29.1,27.5,00.0,38.1,30.9,14.6,0000.4,0010.69,0004.96,0004.32
2021-09-19 01:02:00,,0825.6,4.99,0.00,29.2,27.9,00.0,38.2,31.0,14.5,0000.7,0010.75,0004.95,0004.32
2021-09-19 01:03:00,,0825.6,5.01,0.00,29.2,28.1,00.0,38.2,31.1,14.5,0001.1,0010.70,0004.92,0004.32
2021-09-19 01:04:00,,0825.6,4.99,0.00,29.3,28.3,00.0,38.2,31.2,14.5,0001.4,0010.25,0004.90,0004.32
2021-09-19 01:05:00,,0825.6,5.01,0.00,29.3,28.5,00.0,38.2,31.3,14.4,0000.6,0010.35,0004.88,0004.31
2021-09-19 01:06:00,,0825.6,5.00,0.00,29.4,28.6,00.0,38.3,31.3,14.4,0000.4,0010.39,0004.87,0004.30
2021-09-19 01:07:00,,0825.6,5.00,0.00,29.4,27.7,00.0,38.3,31.1,14.4,0000.7,0009.56,0004.83,0004.30
2021-09-19 01:08:00,,0825.6,5.00,0.00,29.2,25.7,00.0,38.3,30.5,14.4,0000.7,0009.92,0004.87,0004.30
2021-09-19 01:09:00,,0825.6,5.00,0.00,29.1,25.6,00.0,38.2,30.4,14.5,0000.6,0010.52,0004.90,0004.29
2021-09-19 01:10:00,,0825.6,5.01,0.00,29.0,26.0,00.0,38.2,30.5,14.4,0000.7,0009.73,0004.90,0004.29
2021-09-19 01:11:00,,0825.6,5.00,0.00,29.0,26.5,00.0,38.2,30.6,14.4,0000.4,0009.71,0004.92,0004.30
2021-09-19 01:12:00,,0825.5,5.00,0.00,29.0,26.9,00.0,38.2,30.8,14.4,0000.4,0009.95,0004.92,0004.30
2021-09-19 01:13:00,,0825.5,5.00,0.00,29.1,27.4,00.0,38.1,30.9,14.2,0000.7,0009.99,0004.93,0004.31
2021-09-19 01:14:00,,0825.6,5.00,0.00,29.1,27.7,00.0,38.2,31.0,14.1,0000.4,0009.98,0004.92,0004.29
2021-09-19 01:15:00,,0825.5,5.00,0.00,29.2,28.0,00.0,38.2,31.0,14.2,0000.3,0010.58,0004.95,0004.29
2021-09-19 01:16:00,,0825.5,5.00,0.00,29.2,28.2,00.0,38.2,31.1,14.1,0000.7,0011.01,0004.96,0004.29
2021-09-19 01:17:00,,0825.5,4.99,0.00,29.3,28.4,00.0,38.2,31.2,14.0,0001.1,0011.50,0004.98,0004.30
2021-09-19 01:18:00,,0825.5,4.99,0.00,29.3,28.5,00.0,38.2,31.3,14.1,0001.7,0011.44,0004.97,0004.30
2021-09-19 01:19:00,,0825.5,5.01,0.00,29.4,28.7,00.0,38.3,31.3,13.9,0000.5,0011.27,0004.95,0004.30
2021-09-19 01:20:00,,0825.5,4.99,0.00,29.4,28.3,00.0,38.3,31.2,13.9,0000.0,0010.65,0004.96,0004.31
2021-09-19 01:21:00,,0825.5,5.01,0.00,29.3,26.3,00.0,38.3,30.7,14.0,0000.0,0010.73,0004.98,0004.32
2021-09-19 01:22:00,,0825.4,4.99,0.00,29.1,25.5,00.0,38.3,30.4,14.1,0000.3,0011.25,0005.03,0004.31
2021-09-19 01:23:00,,0825.5,5.00,0.00,29.1,25.9,00.0,38.2,30.5,14.1,0000.0,0011.63,0005.07,0004.30
2021-09-19 01:24:00,,0825.4,5.00,0.00,29.0,26.4,00.0,38.2,30.6,14.2,0000.0,0012.43,0005.07,0004.29
2021-09-19 01:25:00,,0825.4,5.00,0.00,29.0,26.8,00.0,38.2,30.7,14.2,0000.0,0013.25,0005.12,0004.30
2021-09-19 01:26:00,,0825.4,5.00,0.00,29.1,27.2,00.0,38.2,30.8,14.2,0001.6,0013.80,0005.14,0004.32
2021-09-19 01:27:00,,0825.4,4.99,0.00,29.1,27.6,00.0,38.2,30.9,14.2,0001.9,0013.27,0005.17,0004.34
2021-09-19 01:28:00,,0825.5,4.99,0.00,29.2,27.9,00.0,38.2,31.0,14.2,0001.5,0013.87,0005.18,0004.35
2021-09-19 01:29:00,,0825.4,5.02,0.00,29.2,28.1,00.0,38.2,31.1,14.2,0001.2,0015.11,0005.22,0004.36
2021-09-19 01:30:00,,0825.5,5.00,0.00,29.3,28.3,00.0,38.2,31.1,14.1,0001.3,0015.89,0005.26,0004.38
2021-09-19 01:31:00,,0825.5,4.99,0.00,29.3,28.5,00.0,38.2,31.2,14.1,0001.5,0016.49,0005.27,0004.39
2021-09-19 01:32:00,,0825.5,5.01,0.00,29.4,28.6,00.0,38.3,31.3,14.1,0001.7,0017.75,0005.28,0004.40
2021-09-19 01:33:00,,0825.5,5.01,0.00,29.4,28.6,00.0,38.3,31.3,14.1,0001.7,0017.75,0005.25,0004.43
2021-09-19 01:34:00,,0825.5,5.00,0.00,29.4,26.9,00.0,38.3,30.9,14.1,0002.0,0017.27,0005.26,0004.46
2021-09-19 01:35:00,,0825.5,5.00,0.00,29.2,25.5,00.0,38.3,30.5,14.2,0001.9,0016.54,0005.28,0004.48
2021-09-19 01:36:00,,0825.4,5.01,0.00,29.1,25.7,00.0,38.3,30.5,14.3,0001.6,0015.77,0005.26,0004.49
2021-09-19 01:37:00,,0825.4,5.01,0.00,29.1,26.2,00.0,38.2,30.6,14.3,0001.8,0014.85,0005.25,0004.49
2021-09-19 01:38:00,,0825.5,5.00,0.00,29.0,26.7,00.0,38.2,30.7,14.3,0001.3,0015.03,0005.27,0004.50
2021-09-19 01:39:00,,0825.5,4.99,0.00,29.1,27.1,00.0,38.2,30.8,14.4,0000.0,0014.22,0005.29,0004.49
2021-09-19 01:40:00,,0825.4,5.01,0.00,29.1,27.5,00.0,38.2,30.9,14.3,0000.0,0013.07,0005.27,0004.48
2021-09-19 01:41:00,,0825.4,4.99,0.00,29.1,27.8,00.0,38.2,31.0,14.3,0000.0,0013.00,0005.27,0004.47
2021-09-19 01:42:00,,0825.4,5.00,0.00,29.2,28.0,00.0,38.2,31.1,14.3,0000.0,0012.94,0005.27,0004.47
2021-09-19 01:43:00,,0825.4,5.01,0.00,29.3,28.2,00.0,38.2,31.1,14.2,0000.0,0012.25,0005.26,0004.46
2021-09-19 01:44:00,,0825.4,5.00,0.00,29.3,28.4,00.0,38.2,31.2,14.2,0000.0,0011.49,0005.25,0004.46
2021-09-19 01:45:00,,0825.3,4.99,0.00,29.4,28.6,00.0,38.3,31.3,14.2,0000.0,0011.34,0005.22,0004.45
2021-09-19 01:46:00,,0825.4,5.00,0.00,29.4,28.7,00.0,38.3,31.3,14.1,0000.0,0011.10,0005.17,0004.43
2021-09-19 01:47:00,,0825.3,5.01,0.00,29.4,27.7,00.0,38.3,31.1,14.1,0000.0,0011.16,0005.16,0004.42
2021-09-19 01:48:00,,0825.4,4.99,0.00,29.3,25.8,00.0,38.3,30.6,14.2,0002.5,0011.39,0005.12,0004.41
2021-09-19 01:49:00,,0825.3,5.00,0.00,29.1,25.6,00.0,38.3,30.5,14.3,0002.7,0011.02,0005.08,0004.40
2021-09-19 01:50:00,,0825.3,5.01,0.00,29.1,26.0,00.0,38.2,30.6,14.3,0002.5,0010.76,0005.06,0004.39
2021-09-19 01:51:00,,0825.3,5.01,0.00,29.0,26.5,00.0,38.2,30.7,14.4,0002.4,0011.61,0005.09,0004.39
2021-09-19 01:52:00,,0825.3,5.00,0.00,29.1,27.0,00.0,38.2,30.8,14.4,0002.5,0011.22,0005.06,0004.39
2021-09-19 01:53:00,,0825.4,4.99,0.00,29.1,27.4,00.0,38.2,30.9,14.4,0002.1,0010.92,0005.05,0004.38
2021-09-19 01:54:00,,0825.3,5.01,0.00,29.1,27.7,00.0,38.2,30.9,14.4,0002.1,0010.38,0005.03,0004.37
2021-09-19 01:55:00,,0825.3,5.00,0.00,29.2,27.9,00.0,38.2,31.0,14.4,0002.1,0010.60,0005.03,0004.36
2021-09-19 01:56:00,,0825.3,5.00,0.00,29.2,28.1,00.0,38.2,31.1,14.4,0002.4,0011.00,0004.97,0004.34
2021-09-19 01:57:00,,0825.3,5.01,0.00,29.3,28.3,00.0,38.2,31.2,14.3,0002.0,0010.96,0004.96,0004.34
2021-09-19 01:58:00,,0825.3,5.00,0.00,29.3,28.5,00.0,38.3,31.3,14.3,0001.9,0010.81,0004.95,0004.32
2021-09-19 01:59:00,,0825.3,4.99,0.00,29.4,28.6,00.0,38.3,31.3,14.2,0001.0,0010.43,0004.94,0004.31
